Time,TemperatureF,DewpointF,PressureIn,WindDirection,WindDirectionDegrees,WindSpeedMPH,WindSpeedGustMPH,Humidity,HourlyPrecipIn,Conditions,Clouds,dailyrainin,SolarRadiationWatts/m^2,SoftwareType,DateUTC
2013-07-07 00:02:00,73.7,64.1,29.58,SSE,167,6.0,7.0,72,0.00,,,0.00,0,Wunderground v.1.15,2013-07-07 05:02:00,
2013-07-07 00:07:00,73.5,64.3,29.58,SSE,160,6.0,8.0,73,0.00,,,0.00,0,Wunderground v.1.15,2013-07-07 05:07:00,
2013-07-07 00:12:00,73.6,64.4,29.58,SSE,162,10.0,10.0,73,0.00,,,0.00,0,Wunderground v.1.15,2013-07-07 05:12:00,
2013-07-07 00:17:00,73.7,64.1,29.58,SSE,167,9.0,10.0,72,0.00,,,0.00,0,Wunderground v.1.15,2013-07-07 05:17:00,
2013-07-07 00:22:00,74.1,64.5,29.58,South,173,11.0,11.0,72,0.00,,,0.00,0,Wunderground v.1.15,2013-07-07 05:22:00,
2013-07-07 00:27:00,74.4,64.4,29.58,SSE,161,8.0,12.0,71,0.00,,,0.00,0,Wunderground v.1.15,2013-07-07 05:27:00,
2013-07-07 00:32:00,74.4,64.4,29.58,South,176,6.0,13.0,71,0.00,,,0.00,0,Wunderground v.1.15,2013-07-07 05:32:00,
2013-07-07 00:38:00,74.4,64.4,29.58,South,175,6.0,13.0,71,0.00,,,0.00,0,Wunderground v.1.15,2013-07-07 05:38:00,
2013-07-07 00:44:00,74.0,64.4,29.58,SSE,160,4.0,9.0,72,0.00,,,0.00,0,Wunderground v.1.15,2013-07-07 05:44:00,
2013-07-07 00:49:00,73.6,64.0,29.58,SSE,161,8.0,9.0,72,0.00,,,0.00,0,Wunderground v.1.15,2013-07-07 05:49:00,
2013-07-07 00:54:00,73.4,64.2,29.58,South,175,10.0,10.0,73,0.00,,,0.00,0,Wunderground v.1.15,2013-07-07 05:54:00,
2013-07-07 00:59:00,73.4,64.2,29.58,SSE,157,9.0,10.0,73,0.00,,,0.00,0,Wunderground v.1.15,2013-07-07 05:59:00,
2013-07-07 01:05:00,73.1,64.3,29.58,SSE,162,9.0,9.0,74,0.00,,,0.00,0,Wunderground v.1.15,2013-07-07 06:05:00,
2013-07-07 01:10:00,73.0,64.2,29.58,SSE,160,7.0,7.0,74,0.00,,,0.00,0,Wunderground v.1.15,2013-07-07 06:10:00,
2013-07-07 01:15:00,72.7,63.9,29.58,SE,142,5.0,8.0,74,0.00,,,0.00,0,Wunderground v.1.15,2013-07-07 06:15:00,
2013-07-07 01:20:00,72.4,64.0,29.58,SSE,153,7.0,7.0,75,0.00,,,0.00,0,Wunderground v.1.15,2013-07-07 06:20:00,
2013-07-07 01:25:00,72.1,63.7,29.58,SSE,159,6.0,10.0,75,0.00,,,0.00,0,Wunderground v.1.15,2013-07-07 06:25:00,
2013-07-07 01:30:00,72.0,64.0,29.58,SSE,157,7.0,8.0,76,0.00,,,0.00,0,Wunderground v.1.15,2013-07-07 06:30:00,
2013-07-07 01:36:00,71.9,63.9,29.59,South,180,6.0,13.0,76,0.00,,,0.00,0,Wunderground v.1.15,2013-07-07 06:36:00,
2013-07-07 01:41:00,71.7,64.1,29.59,South,169,8.0,8.0,77,0.00,,,0.00,0,Wunderground v.1.15,2013-07-07 06:41:00,
2013-07-07 01:47:00,71.5,63.9,29.59,SSE,165,7.0,8.0,77,0.00,,,0.00,0,Wunderground v.1.15,2013-07-07 06:47:00,
2013-07-07 01:52:00,71.3,64.1,29.59,South,176,7.0,8.0,78,0.00,,,0.00,0,Wunderground v.1.15,2013-07-07 06:52:00,
2013-07-07 01:58:00,71.1,64.3,29.59,South,173,8.0,8.0,79,0.00,,,0.00,0,Wunderground v.1.15,2013-07-07 06:58:00,
2013-07-07 02:03:00,70.9,64.1,29.59,South,169,9.0,9.0,79,0.00,,,0.00,0,Wunderground v.1.15,2013-07-07 07:03:00,
2013-07-07 02:08:00,70.7,64.2,29.59,SSE,164,6.0,10.0,80,0.00,,,0.00,0,Wunderground v.1.15,2013-07-07 07:08:00,
2013-07-07 02:13:00,70.6,64.1,29.59,SSE,168,8.0,10.0,80,0.00,,,0.00,0,Wunderground v.1.15,2013-07-07 07:13:00,
2013-07-07 02:18:00,70.4,64.3,29.59,South,172,6.0,10.0,81,0.00,,,0.00,0,Wunderground v.1.15,2013-07-07 07:18:00,
2013-07-07 02:23:00,70.2,64.1,29.59,South,178,6.0,10.0,81,0.00,,,0.00,0,Wunderground v.1.15,2013-07-07 07:23:00,
2013-07-07 02:28:00,70.0,64.2,29.59,South,172,7.0,12.0,82,0.00,,,0.00,0,Wunderground v.1.15,2013-07-07 07:28:00,
2013-07-07 02:33:00,69.8,64.1,29.59,SSE,165,5.0,8.0,82,0.00,,,0.00,0,Wunderground v.1.15,2013-07-07 07:33:00,
2013-07-07 02:38:00,69.6,64.2,29.59,South,173,6.0,9.0,83,0.00,,,0.00,0,Wunderground v.1.15,2013-07-07 07:38:00,
2013-07-07 02:43:00,69.6,64.2,29.59,South,169,7.0,10.0,83,0.00,,,0.00,0,Wunderground v.1.15,2013-07-07 07:43:00,
2013-07-07 02:48:00,69.4,64.0,29.59,South,169,5.0,10.0,83,0.00,,,0.00,0,Wunderground v.1.15,2013-07-07 07:48:00,
2013-07-07 02:53:00,69.2,64.2,29.59,South,169,3.0,7.0,84,0.00,,,0.00,0,Wunderground v.1.15,2013-07-07 07:53:00,
2013-07-07 02:58:00,68.9,63.9,29.59,South,169,5.0,7.0,84,0.00,,,0.00,0,Wunderground v.1.15,2013-07-07 07:58:00,
2013-07-07 03:03:00,68.7,63.7,29.58,South,169,4.0,6.0,84,0.00,,,0.00,0,Wunderground v.1.15,2013-07-07 08:03:00,
2013-07-07 03:08:00,68.6,63.9,29.58,SSE,168,5.0,7.0,85,0.00,,,0.00,0,Wunderground v.1.15,2013-07-07 08:08:00,
2013-07-07 03:13:00,68.5,63.8,29.58,SSE,168,5.0,7.0,85,0.00,,,0.00,0,Wunderground v.1.15,2013-07-07 08:13:00,
2013-07-07 03:18:00,68.6,63.9,29.59,SSE,167,5.0,7.0,85,0.00,,,0.00,0,Wunderground v.1.15,2013-07-07 08:18:00,
2013-07-07 03:23:00,68.5,63.8,29.59,SSE,168,5.0,7.0,85,0.00,,,0.00,0,Wunderground v.1.15,2013-07-07 08:23:00,
2013-07-07 03:28:00,68.6,64.2,29.58,SSE,168,5.0,7.0,86,0.00,,,0.00,0,Wunderground v.1.15,2013-07-07 08:28:00,
2013-07-07 03:33:00,68.5,64.1,29.58,SSE,168,5.0,6.0,86,0.00,,,0.00,0,Wunderground v.1.15,2013-07-07 08:33:00,
2013-07-07 03:38:00,68.3,63.9,29.58,SSE,168,5.0,8.0,86,0.00,,,0.00,0,Wunderground v.1.15,2013-07-07 08:38:00,
2013-07-07 03:43:00,68.3,63.9,29.58,South,169,4.0,7.0,86,0.00,,,0.00,0,Wunderground v.1.15,2013-07-07 08:43:00,
2013-07-07 03:48:00,68.2,63.9,29.58,South,169,2.0,7.0,86,0.00,,,0.00,0,Wunderground v.1.15,2013-07-07 08:48:00,
2013-07-07 03:53:00,68.0,63.7,29.58,South,169,1.0,4.0,86,0.00,,,0.00,0,Wunderground v.1.15,2013-07-07 08:53:00,
2013-07-07 03:58:00,67.8,63.5,29.58,South,169,0.0,4.0,86,0.00,,,0.00,0,Wunderground v.1.15,2013-07-07 08:58:00,
2013-07-07 04:03:00,67.7,63.4,29.58,South,169,0.0,1.0,86,0.00,,,0.00,0,Wunderground v.1.15,2013-07-07 09:03:00,
2013-07-07 04:08:00,67.6,63.3,29.58,South,169,0.0,1.0,86,0.00,,,0.00,0,Wunderground v.1.15,2013-07-07 09:08:00,
2013-07-07 04:13:00,67.6,63.3,29.58,South,169,0.0,1.0,86,0.00,,,0.00,0,Wunderground v.1.15,2013-07-07 09:13:00,
2013-07-07 04:18:00,67.3,63.0,29.59,South,169,0.0,1.0,86,0.00,,,0.00,0,Wunderground v.1.15,2013-07-07 09:18:00,
2013-07-07 04:23:00,67.3,63.3,29.59,South,169,2.0,3.0,87,0.00,,,0.00,0,Wunderground v.1.15,2013-07-07 09:23:00,
2013-07-07 04:28:00,67.2,63.2,29.58,South,169,2.0,3.0,87,0.00,,,0.00,0,Wunderground v.1.15,2013-07-07 09:28:00,
2013-07-07 04:33:00,67.0,63.0,29.58,South,169,3.0,3.0,87,0.00,,,0.00,0,Wunderground v.1.15,2013-07-07 09:33:00,
2013-07-07 04:38:00,66.9,62.9,29.58,South,169,3.0,4.0,87,0.00,,,0.00,0,Wunderground v.1.15,2013-07-07 09:38:00,
2013-07-07 04:43:00,66.9,62.9,29.58,South,169,4.0,5.0,87,0.00,,,0.00,0,Wunderground v.1.15,2013-07-07 09:43:00,
2013-07-07 04:48:00,67.0,63.0,29.58,South,169,4.0,6.0,87,0.00,,,0.00,0,Wunderground v.1.15,2013-07-07 09:48:00,
2013-07-07 04:53:00,67.1,63.4,29.58,South,169,1.0,6.0,88,0.00,,,0.00,0,Wunderground v.1.15,2013-07-07 09:53:00,
2013-07-07 04:58:00,67.1,63.4,29.58,South,169,4.0,6.0,88,0.00,,,0.00,0,Wunderground v.1.15,2013-07-07 09:58:00,
2013-07-07 05:03:00,66.9,63.2,29.58,South,169,1.0,2.0,88,0.00,,,0.00,0,Wunderground v.1.15,2013-07-07 10:03:00,
2013-07-07 05:08:00,66.9,63.2,29.58,South,169,0.0,3.0,88,0.00,,,0.00,0,Wunderground v.1.15,2013-07-07 10:08:00,
2013-07-07 05:13:00,66.7,63.0,29.58,South,169,0.0,2.0,88,0.00,,,0.00,0,Wunderground v.1.15,2013-07-07 10:13:00,
2013-07-07 05:18:00,66.6,62.9,29.58,South,169,0.0,2.0,88,0.00,,,0.00,0,Wunderground v.1.15,2013-07-07 10:18:00,
2013-07-07 05:23:00,66.4,62.7,29.58,South,169,0.0,0.0,88,0.00,,,0.00,0,Wunderground v.1.15,2013-07-07 10:23:00,
2013-07-07 05:28:00,66.3,62.6,29.58,South,169,0.0,0.0,88,0.00,,,0.00,0,Wunderground v.1.15,2013-07-07 10:28:00,
2013-07-07 05:34:00,66.1,62.4,29.58,South,169,0.0,0.0,88,0.00,,,0.00,0,Wunderground v.1.15,2013-07-07 10:34:00,
2013-07-07 05:39:00,65.7,62.0,29.58,South,169,0.0,0.0,88,0.00,,,0.00,0,Wunderground v.1.15,2013-07-07 10:39:00,
2013-07-07 05:44:00,65.3,61.7,29.59,South,169,0.0,0.0,88,0.00,,,0.00,0,Wunderground v.1.15,2013-07-07 10:44:00,
2013-07-07 05:49:00,65.0,61.4,29.59,South,169,0.0,0.0,88,0.00,,,0.00,0,Wunderground v.1.15,2013-07-07 10:49:00,
2013-07-07 05:54:00,64.7,61.1,29.59,South,169,0.0,0.0,88,0.00,,,0.00,0,Wunderground v.1.15,2013-07-07 10:54:00,
2013-07-07 05:59:00,64.9,61.3,29.59,South,169,1.0,2.0,88,0.00,,,0.00,0,Wunderground v.1.15,2013-07-07 10:59:00,
2013-07-07 06:04:00,64.7,61.1,29.59,South,169,1.0,3.0,88,0.00,,,0.00,0,Wunderground v.1.15,2013-07-07 11:04:00,
2013-07-07 06:09:00,64.5,61.2,29.60,South,169,0.0,3.0,89,0.00,,,0.00,5,Wunderground v.1.15,2013-07-07 11:09:00,
2013-07-07 06:14:00,64.6,61.0,29.60,South,169,0.0,1.0,88,0.00,,,0.00,9,Wunderground v.1.15,2013-07-07 11:14:00,
2013-07-07 06:19:00,64.4,61.1,29.60,South,169,0.0,1.0,89,0.00,,,0.00,12,Wunderground v.1.15,2013-07-07 11:19:00,
2013-07-07 06:24:00,64.5,61.2,29.61,South,169,0.0,0.0,89,0.00,,,0.00,16,Wunderground v.1.15,2013-07-07 11:24:00,
2013-07-07 06:29:00,64.6,61.3,29.61,South,169,0.0,0.0,89,0.00,,,0.00,19,Wunderground v.1.15,2013-07-07 11:29:00,
2013-07-07 06:34:00,64.7,61.4,29.61,South,169,0.0,0.0,89,0.00,,,0.00,21,Wunderground v.1.15,2013-07-07 11:34:00,
2013-07-07 06:39:00,64.7,61.4,29.61,South,169,0.0,0.0,89,0.00,,,0.00,23,Wunderground v.1.15,2013-07-07 11:39:00,
2013-07-07 06:44:00,64.9,61.6,29.61,South,169,0.0,0.0,89,0.00,,,0.00,30,Wunderground v.1.15,2013-07-07 11:44:00,
2013-07-07 06:49:00,64.9,61.6,29.61,South,169,0.0,0.0,89,0.00,,,0.00,37,Wunderground v.1.15,2013-07-07 11:49:00,
2013-07-07 06:54:00,64.9,61.6,29.61,South,169,0.0,0.0,89,0.00,,,0.00,42,Wunderground v.1.15,2013-07-07 11:54:00,
2013-07-07 06:59:00,65.1,61.8,29.60,South,169,0.0,0.0,89,0.00,,,0.00,46,Wunderground v.1.15,2013-07-07 11:59:00,
2013-07-07 07:04:00,65.1,61.8,29.60,South,169,0.0,0.0,89,0.00,,,0.00,47,Wunderground v.1.15,2013-07-07 12:04:00,
2013-07-07 07:09:00,65.1,61.8,29.61,South,169,0.0,0.0,89,0.00,,,0.00,54,Wunderground v.1.15,2013-07-07 12:09:00,
2013-07-07 07:14:00,65.2,62.2,29.60,South,169,0.0,0.0,90,0.00,,,0.00,69,Wunderground v.1.15,2013-07-07 12:14:00,
2013-07-07 07:19:00,65.6,62.6,29.60,South,169,3.0,3.0,90,0.00,,,0.00,95,Wunderground v.1.15,2013-07-07 12:19:00,
2013-07-07 07:24:00,65.9,62.9,29.61,SSE,168,0.0,4.0,90,0.00,,,0.00,171,Wunderground v.1.15,2013-07-07 12:24:00,
2013-07-07 07:29:00,66.6,63.6,29.61,SSE,168,0.0,4.0,90,0.00,,,0.00,193,Wunderground v.1.15,2013-07-07 12:29:00,
2013-07-07 07:34:00,67.1,64.1,29.61,SSE,168,0.0,1.0,90,0.00,,,0.00,220,Wunderground v.1.15,2013-07-07 12:34:00,
2013-07-07 07:39:00,67.7,64.7,29.61,SSE,168,0.0,2.0,90,0.00,,,0.00,230,Wunderground v.1.15,2013-07-07 12:39:00,
2013-07-07 07:44:00,68.1,65.1,29.61,SSE,168,2.0,4.0,90,0.00,,,0.00,237,Wunderground v.1.15,2013-07-07 12:44:00,
2013-07-07 07:49:00,68.2,65.2,29.61,SSE,168,3.0,4.0,90,0.00,,,0.00,169,Wunderground v.1.15,2013-07-07 12:49:00,
2013-07-07 07:54:00,68.3,65.3,29.61,SSE,168,3.0,3.0,90,0.00,,,0.00,276,Wunderground v.1.15,2013-07-07 12:54:00,
2013-07-07 07:59:00,68.5,65.1,29.61,SSE,168,3.0,4.0,89,0.00,,,0.00,185,Wunderground v.1.15,2013-07-07 12:59:00,
2013-07-07 08:04:00,68.6,65.2,29.61,SSE,168,1.0,4.0,89,0.00,,,0.00,211,Wunderground v.1.15,2013-07-07 13:04:00,
2013-07-07 08:09:00,68.8,65.4,29.61,SSE,168,0.0,4.0,89,0.00,,,0.00,336,Wunderground v.1.15,2013-07-07 13:09:00,
2013-07-07 08:14:00,69.1,65.7,29.61,SSE,168,0.0,2.0,89,0.00,,,0.00,200,Wunderground v.1.15,2013-07-07 13:14:00,
2013-07-07 08:19:00,69.4,66.0,29.62,SSE,168,0.0,2.0,89,0.00,,,0.00,287,Wunderground v.1.15,2013-07-07 13:19:00,
2013-07-07 08:24:00,69.7,66.3,29.61,SSE,168,0.0,1.0,89,0.00,,,0.00,236,Wunderground v.1.15,2013-07-07 13:24:00,
2013-07-07 08:29:00,70.1,66.4,29.62,SSE,168,0.0,2.0,88,0.00,,,0.00,188,Wunderground v.1.15,2013-07-07 13:29:00,
2013-07-07 08:34:00,70.4,66.7,29.62,SSE,168,1.0,2.0,88,0.00,,,0.00,185,Wunderground v.1.15,2013-07-07 13:34:00,
2013-07-07 08:39:00,70.4,66.7,29.62,SSE,168,0.0,2.0,88,0.00,,,0.00,229,Wunderground v.1.15,2013-07-07 13:39:00,
2013-07-07 08:44:00,70.7,66.6,29.63,SSE,168,4.0,5.0,87,0.00,,,0.00,229,Wunderground v.1.15,2013-07-07 13:44:00,
2013-07-07 08:49:00,70.6,66.5,29.63,SSE,168,3.0,5.0,87,0.00,,,0.00,206,Wunderground v.1.15,2013-07-07 13:49:00,
2013-07-07 08:54:00,70.9,66.8,29.63,SSE,168,3.0,4.0,87,0.00,,,0.00,309,Wunderground v.1.15,2013-07-07 13:54:00,
2013-07-07 08:59:00,71.0,66.9,29.63,SSE,168,2.0,4.0,87,0.00,,,0.00,343,Wunderground v.1.15,2013-07-07 13:59:00,
2013-07-07 09:04:00,71.5,67.4,29.64,South,169,4.0,6.0,87,0.00,,,0.00,487,Wunderground v.1.15,2013-07-07 14:04:00,
2013-07-07 09:09:00,72.0,67.6,29.63,South,178,4.0,7.0,86,0.00,,,0.00,508,Wunderground v.1.15,2013-07-07 14:09:00,
2013-07-07 09:14:00,72.2,67.4,29.63,South,178,4.0,5.0,85,0.00,,,0.00,446,Wunderground v.1.15,2013-07-07 14:14:00,
2013-07-07 09:19:00,72.6,67.8,29.64,South,184,6.0,8.0,85,0.00,,,0.00,490,Wunderground v.1.15,2013-07-07 14:19:00,
2013-07-07 09:24:00,73.0,68.2,29.64,South,184,2.0,5.0,85,0.00,,,0.00,350,Wunderground v.1.15,2013-07-07 14:24:00,
2013-07-07 09:29:00,73.3,68.2,29.64,South,186,3.0,5.0,84,0.00,,,0.00,397,Wunderground v.1.15,2013-07-07 14:29:00,
2013-07-07 09:34:00,73.9,68.8,29.64,South,186,3.0,3.0,84,0.00,,,0.00,376,Wunderground v.1.15,2013-07-07 14:34:00,
2013-07-07 09:39:00,74.1,68.3,29.63,South,189,1.0,5.0,82,0.00,,,0.00,476,Wunderground v.1.15,2013-07-07 14:39:00,
2013-07-07 09:44:00,74.8,68.6,29.63,South,189,0.0,2.0,81,0.00,,,0.00,454,Wunderground v.1.15,2013-07-07 14:44:00,
2013-07-07 09:49:00,75.5,68.5,29.63,South,189,0.0,2.0,79,0.00,,,0.00,529,Wunderground v.1.15,2013-07-07 14:49:00,
2013-07-07 09:54:00,75.9,68.2,29.63,South,190,3.0,4.0,77,0.00,,,0.00,503,Wunderground v.1.15,2013-07-07 14:54:00,
2013-07-07 09:59:00,76.1,68.4,29.64,South,190,1.0,4.0,77,0.00,,,0.00,513,Wunderground v.1.15,2013-07-07 14:59:00,
2013-07-07 10:04:00,76.4,68.7,29.64,WNW,287,4.0,7.0,77,0.00,,,0.00,566,Wunderground v.1.15,2013-07-07 15:04:00,
2013-07-07 10:09:00,77.1,68.9,29.64,WNW,288,1.0,7.0,76,0.00,,,0.00,622,Wunderground v.1.15,2013-07-07 15:09:00,
2013-07-07 10:15:00,77.7,69.1,29.64,WNW,289,0.0,4.0,75,0.00,,,0.00,642,Wunderground v.1.15,2013-07-07 15:15:00,
2013-07-07 10:20:00,78.4,69.8,29.64,WNW,299,5.0,5.0,75,0.00,,,0.00,675,Wunderground v.1.15,2013-07-07 15:20:00,
2013-07-07 10:25:00,79.0,70.0,29.64,NW,313,4.0,7.0,74,0.00,,,0.00,475,Wunderground v.1.15,2013-07-07 15:25:00,
2013-07-07 10:30:00,79.2,69.4,29.64,NW,313,3.0,4.0,72,0.00,,,0.00,680,Wunderground v.1.15,2013-07-07 15:30:00,
2013-07-07 10:35:00,79.3,69.9,29.64,NW,313,2.0,4.0,73,0.00,,,0.00,689,Wunderground v.1.15,2013-07-07 15:35:00,
2013-07-07 10:40:00,79.9,70.1,29.64,NW,313,3.0,3.0,72,0.00,,,0.00,698,Wunderground v.1.15,2013-07-07 15:40:00,
2013-07-07 10:45:00,80.1,70.3,29.64,NW,317,3.0,5.0,72,0.00,,,0.00,710,Wunderground v.1.15,2013-07-07 15:45:00,
2013-07-07 10:50:00,80.1,69.8,29.63,NNW,329,3.0,4.0,71,0.00,,,0.00,726,Wunderground v.1.15,2013-07-07 15:50:00,
2013-07-07 10:55:00,79.8,70.0,29.63,NE,49,2.0,7.0,72,0.00,,,0.00,747,Wunderground v.1.15,2013-07-07 15:55:00,
2013-07-07 11:00:00,80.2,70.8,29.63,NE,49,5.0,5.0,73,0.00,,,0.00,773,Wunderground v.1.15,2013-07-07 16:00:00,
2013-07-07 11:05:00,80.5,70.6,29.63,NE,49,5.0,6.0,72,0.00,,,0.00,752,Wunderground v.1.15,2013-07-07 16:05:00,
2013-07-07 11:10:00,81.0,71.1,29.63,NE,44,4.0,4.0,72,0.00,,,0.00,796,Wunderground v.1.15,2013-07-07 16:10:00,
2013-07-07 11:15:00,81.6,70.9,29.63,NE,40,5.0,8.0,70,0.00,,,0.00,796,Wunderground v.1.15,2013-07-07 16:15:00,
2013-07-07 11:20:00,81.9,71.2,29.63,NNE,33,9.0,9.0,70,0.00,,,0.00,823,Wunderground v.1.15,2013-07-07 16:20:00,
2013-07-07 11:25:00,82.1,70.9,29.62,NE,51,6.0,11.0,69,0.00,,,0.00,828,Wunderground v.1.15,2013-07-07 16:25:00,
2013-07-07 11:30:00,82.1,70.1,29.62,NE,53,5.0,11.0,67,0.00,,,0.00,842,Wunderground v.1.15,2013-07-07 16:30:00,
2013-07-07 11:35:00,82.1,71.3,29.63,NE,55,5.0,10.0,70,0.00,,,0.00,828,Wunderground v.1.15,2013-07-07 16:35:00,
2013-07-07 11:40:00,82.2,70.6,29.63,ENE,60,4.0,6.0,68,0.00,,,0.00,893,Wunderground v.1.15,2013-07-07 16:40:00,
2013-07-07 11:45:00,82.9,71.7,29.63,NNE,28,8.0,9.0,69,0.00,,,0.00,789,Wunderground v.1.15,2013-07-07 16:45:00,
2013-07-07 11:50:00,83.3,71.2,29.64,NE,35,6.0,9.0,67,0.00,,,0.00,693,Wunderground v.1.15,2013-07-07 16:50:00,
2013-07-07 11:55:00,83.1,71.0,29.63,NE,55,4.0,9.0,67,0.00,,,0.00,550,Wunderground v.1.15,2013-07-07 16:55:00,
2013-07-07 11:59:00,83.0,71.3,29.64,NE,43,2.0,9.0,68,0.00,,,0.00,621,Wunderground v.1.15,2013-07-07 16:59:00,
2013-07-07 12:04:00,83.2,71.1,29.64,NE,43,6.0,7.0,67,0.00,,,0.00,548,Wunderground v.1.15,2013-07-07 17:04:00,
2013-07-07 12:09:00,83.4,71.3,29.64,NE,43,4.0,7.0,67,0.00,,,0.00,564,Wunderground v.1.15,2013-07-07 17:09:00,
2013-07-07 12:14:00,83.7,72.0,29.65,NE,43,4.0,5.0,68,0.00,,,0.00,417,Wunderground v.1.15,2013-07-07 17:14:00,
2013-07-07 12:19:00,83.8,71.2,29.65,NE,39,4.0,7.0,66,0.00,,,0.00,715,Wunderground v.1.15,2013-07-07 17:19:00,
2013-07-07 12:24:00,84.3,71.7,29.65,NNE,32,6.0,7.0,66,0.00,,,0.00,896,Wunderground v.1.15,2013-07-07 17:24:00,
2013-07-07 12:30:00,84.6,72.0,29.65,NNE,32,3.0,8.0,66,0.00,,,0.00,882,Wunderground v.1.15,2013-07-07 17:30:00,
2013-07-07 12:35:00,85.2,72.1,29.65,NNE,28,6.0,7.0,65,0.00,,,0.00,1085,Wunderground v.1.15,2013-07-07 17:35:00,
2013-07-07 12:40:00,85.4,71.8,29.65,NNE,25,3.0,5.0,64,0.00,,,0.00,865,Wunderground v.1.15,2013-07-07 17:40:00,
2013-07-07 12:45:00,85.5,71.9,29.65,North,9,5.0,8.0,64,0.00,,,0.00,596,Wunderground v.1.15,2013-07-07 17:45:00,
2013-07-07 12:50:00,85.5,71.9,29.66,NNE,13,2.0,3.0,64,0.00,,,0.00,476,Wunderground v.1.15,2013-07-07 17:50:00,
2013-07-07 12:55:00,85.3,72.2,29.66,NNE,13,5.0,6.0,65,0.00,,,0.00,570,Wunderground v.1.15,2013-07-07 17:55:00,
2013-07-07 13:00:00,85.3,71.3,29.65,NNE,14,3.0,3.0,63,0.00,,,0.00,545,Wunderground v.1.15,2013-07-07 18:00:00,
2013-07-07 13:05:00,85.5,72.8,29.65,NNE,22,3.0,6.0,66,0.00,,,0.00,559,Wunderground v.1.15,2013-07-07 18:05:00,
2013-07-07 13:10:00,85.7,72.6,29.65,NNE,22,3.0,3.0,65,0.00,,,0.00,882,Wunderground v.1.15,2013-07-07 18:10:00,
2013-07-07 13:15:00,86.0,73.3,29.65,NNE,33,2.0,7.0,66,0.00,,,0.00,912,Wunderground v.1.15,2013-07-07 18:15:00,
2013-07-07 13:20:00,86.0,72.4,29.65,NNE,32,4.0,5.0,64,0.00,,,0.00,974,Wunderground v.1.15,2013-07-07 18:20:00,
2013-07-07 13:25:00,86.0,72.4,29.65,NNE,15,3.0,6.0,64,0.00,,,0.00,853,Wunderground v.1.15,2013-07-07 18:25:00,
2013-07-07 13:30:00,86.3,71.7,29.65,North,5,5.0,5.0,62,0.00,,,0.00,970,Wunderground v.1.15,2013-07-07 18:30:00,
2013-07-07 13:35:00,86.7,71.2,29.65,North,5,4.0,5.0,60,0.00,,,0.00,1055,Wunderground v.1.15,2013-07-07 18:35:00,
2013-07-07 13:40:00,87.2,71.6,29.65,NNE,24,2.0,4.0,60,0.00,,,0.00,817,Wunderground v.1.15,2013-07-07 18:40:00,
2013-07-07 13:45:00,87.2,72.1,29.65,NNE,24,6.0,6.0,61,0.00,,,0.00,912,Wunderground v.1.15,2013-07-07 18:45:00,
2013-07-07 13:50:00,87.5,72.4,29.65,NNE,24,5.0,5.0,61,0.00,,,0.00,1037,Wunderground v.1.15,2013-07-07 18:50:00,
2013-07-07 13:55:00,87.7,70.6,29.65,NNE,25,3.0,6.0,57,0.00,,,0.00,1058,Wunderground v.1.15,2013-07-07 18:55:00,
2013-07-07 14:00:00,87.7,71.6,29.65,NNE,26,1.0,4.0,59,0.00,,,0.00,800,Wunderground v.1.15,2013-07-07 19:00:00,
2013-07-07 14:05:00,87.4,71.3,29.65,NE,35,5.0,7.0,59,0.00,,,0.00,722,Wunderground v.1.15,2013-07-07 19:05:00,
2013-07-07 14:10:00,87.1,72.0,29.65,NNE,30,6.0,6.0,61,0.00,,,0.00,547,Wunderground v.1.15,2013-07-07 19:10:00,
2013-07-07 14:15:00,87.1,73.4,29.65,NE,34,4.0,8.0,64,0.00,,,0.00,671,Wunderground v.1.15,2013-07-07 19:15:00,
2013-07-07 14:20:00,87.1,72.5,29.65,NE,37,2.0,6.0,62,0.00,,,0.00,780,Wunderground v.1.15,2013-07-07 19:20:00,
2013-07-07 14:25:00,87.3,71.7,29.66,NE,36,3.0,7.0,60,0.00,,,0.00,858,Wunderground v.1.15,2013-07-07 19:25:00,
2013-07-07 14:30:00,87.6,72.5,29.66,NE,47,7.0,7.0,61,0.00,,,0.00,898,Wunderground v.1.15,2013-07-07 19:30:00,
2013-07-07 14:35:00,87.6,72.5,29.65,NE,55,8.0,8.0,61,0.00,,,0.00,963,Wunderground v.1.15,2013-07-07 19:35:00,
2013-07-07 14:40:00,87.5,71.9,29.65,NE,40,8.0,8.0,60,0.00,,,0.00,886,Wunderground v.1.15,2013-07-07 19:40:00,
2013-07-07 14:45:00,87.6,72.0,29.65,NE,35,4.0,8.0,60,0.00,,,0.00,601,Wunderground v.1.15,2013-07-07 19:45:00,
2013-07-07 14:50:00,87.9,72.3,29.65,NE,36,5.0,5.0,60,0.00,,,0.00,705,Wunderground v.1.15,2013-07-07 19:50:00,
2013-07-07 14:55:00,88.0,71.4,29.65,NNE,33,5.0,7.0,58,0.00,,,0.00,531,Wunderground v.1.15,2013-07-07 19:55:00,
2013-07-07 15:00:00,87.9,72.3,29.65,NE,49,2.0,5.0,60,0.00,,,0.00,925,Wunderground v.1.15,2013-07-07 20:00:00,
2013-07-07 15:05:00,87.7,71.6,29.64,NE,53,6.0,9.0,59,0.00,,,0.00,784,Wunderground v.1.15,2013-07-07 20:05:00,
2013-07-07 15:10:00,87.8,72.7,29.64,NE,48,6.0,7.0,61,0.00,,,0.00,763,Wunderground v.1.15,2013-07-07 20:10:00,
2013-07-07 15:15:00,87.8,73.2,29.64,NNE,19,7.0,11.0,62,0.00,,,0.00,638,Wunderground v.1.15,2013-07-07 20:15:00,
2013-07-07 15:20:00,87.9,73.3,29.64,NE,42,4.0,6.0,62,0.00,,,0.00,918,Wunderground v.1.15,2013-07-07 20:20:00,
2013-07-07 15:25:00,88.1,72.5,29.64,NE,42,4.0,9.0,60,0.00,,,0.00,448,Wunderground v.1.15,2013-07-07 20:25:00,
2013-07-07 15:30:00,88.0,73.3,29.63,NE,42,5.0,7.0,62,0.00,,,0.00,448,Wunderground v.1.15,2013-07-07 20:30:00,
2013-07-07 15:35:00,87.8,74.1,29.63,NE,42,3.0,7.0,64,0.00,,,0.00,455,Wunderground v.1.15,2013-07-07 20:35:00,
2013-07-07 15:40:00,87.4,73.3,29.64,NNE,24,5.0,8.0,63,0.00,,,0.00,425,Wunderground v.1.15,2013-07-07 20:40:00,
2013-07-07 15:45:00,86.9,72.8,29.64,ENE,57,4.0,11.0,63,0.00,,,0.00,336,Wunderground v.1.15,2013-07-07 20:45:00,
2013-07-07 15:50:00,86.5,73.3,29.64,NE,56,3.0,6.0,65,0.00,,,0.00,318,Wunderground v.1.15,2013-07-07 20:50:00,
2013-07-07 15:55:00,86.3,73.1,29.63,NE,34,6.0,9.0,65,0.00,,,0.00,278,Wunderground v.1.15,2013-07-07 20:55:00,
2013-07-07 16:00:00,86.0,73.3,29.63,NE,34,2.0,5.0,66,0.00,,,0.00,279,Wunderground v.1.15,2013-07-07 21:00:00,
2013-07-07 16:05:00,85.9,73.7,29.64,NE,34,3.0,5.0,67,0.00,,,0.00,251,Wunderground v.1.15,2013-07-07 21:05:00,
2013-07-07 16:10:00,85.7,73.0,29.64,NE,34,2.0,4.0,66,0.00,,,0.00,179,Wunderground v.1.15,2013-07-07 21:10:00,
2013-07-07 16:15:00,85.4,72.7,29.64,NE,34,2.0,4.0,66,0.00,,,0.00,199,Wunderground v.1.15,2013-07-07 21:15:00,
2013-07-07 16:20:00,85.4,73.2,29.64,NE,34,2.0,2.0,67,0.00,,,0.00,186,Wunderground v.1.15,2013-07-07 21:20:00,
2013-07-07 16:25:00,85.4,73.6,29.64,NE,34,2.0,2.0,68,0.00,,,0.00,155,Wunderground v.1.15,2013-07-07 21:25:00,
2013-07-07 16:30:00,85.4,74.1,29.63,NE,34,3.0,4.0,69,0.00,,,0.00,204,Wunderground v.1.15,2013-07-07 21:30:00,
2013-07-07 16:35:00,84.7,73.4,29.63,NE,34,3.0,5.0,69,0.00,,,0.01,211,Wunderground v.1.15,2013-07-07 21:35:00,
2013-07-07 16:40:00,84.1,74.5,29.63,NE,34,2.0,3.0,73,0.00,,,0.01,248,Wunderground v.1.15,2013-07-07 21:40:00,
2013-07-07 16:45:00,83.7,74.5,29.63,NE,34,4.0,5.0,74,0.00,,,0.01,297,Wunderground v.1.15,2013-07-07 21:45:00,
2013-07-07 16:50:00,84.3,76.3,29.63,NE,34,4.0,5.0,77,0.00,,,0.01,671,Wunderground v.1.15,2013-07-07 21:50:00,
2013-07-07 16:55:00,85.1,76.7,29.63,NE,34,3.0,6.0,76,0.00,,,0.01,752,Wunderground v.1.15,2013-07-07 21:55:00,
2013-07-07 17:00:00,85.6,74.7,29.63,NE,36,8.0,8.0,70,0.00,,,0.01,721,Wunderground v.1.15,2013-07-07 22:00:00,
2013-07-07 17:05:00,86.2,74.8,29.64,NE,42,5.0,8.0,69,0.00,,,0.01,726,Wunderground v.1.15,2013-07-07 22:05:00,
2013-07-07 17:10:00,86.7,75.3,29.63,NNE,31,5.0,7.0,69,0.00,,,0.01,664,Wunderground v.1.15,2013-07-07 22:10:00,
2013-07-07 17:15:00,87.0,73.3,29.63,NNE,24,5.0,10.0,64,0.00,,,0.01,622,Wunderground v.1.15,2013-07-07 22:15:00,
2013-07-07 17:20:00,87.2,73.1,29.63,NNE,33,5.0,6.0,63,0.00,,,0.01,605,Wunderground v.1.15,2013-07-07 22:20:00,
2013-07-07 17:25:00,87.5,74.3,29.63,NE,34,4.0,6.0,65,0.00,,,0.01,585,Wunderground v.1.15,2013-07-07 22:25:00,
2013-07-07 17:30:00,87.2,74.5,29.63,NE,34,7.0,7.0,66,0.00,,,0.01,575,Wunderground v.1.15,2013-07-07 22:30:00,
2013-07-07 17:35:00,87.0,74.3,29.63,NE,36,5.0,9.0,66,0.00,,,0.01,561,Wunderground v.1.15,2013-07-07 22:35:00,
2013-07-07 17:40:00,87.1,73.9,29.63,NE,36,4.0,5.0,65,0.00,,,0.01,548,Wunderground v.1.15,2013-07-07 22:40:00,
2013-07-07 17:45:00,87.2,73.1,29.63,NE,35,2.0,7.0,63,0.00,,,0.01,531,Wunderground v.1.15,2013-07-07 22:45:00,
2013-07-07 17:50:00,87.3,74.1,29.63,NE,49,3.0,4.0,65,0.00,,,0.01,510,Wunderground v.1.15,2013-07-07 22:50:00,
2013-07-07 17:55:00,86.7,73.5,29.62,ENE,57,5.0,9.0,65,0.00,,,0.01,497,Wunderground v.1.15,2013-07-07 22:55:00,
2013-07-07 18:00:00,86.6,74.3,29.62,ENE,57,4.0,5.0,67,0.00,,,0.01,482,Wunderground v.1.15,2013-07-07 23:00:00,
2013-07-07 18:05:00,86.8,73.6,29.62,NE,46,4.0,8.0,65,0.00,,,0.01,468,Wunderground v.1.15,2013-07-07 23:05:00,
2013-07-07 18:10:00,87.1,74.8,29.62,NE,45,3.0,6.0,67,0.00,,,0.01,457,Wunderground v.1.15,2013-07-07 23:10:00,
2013-07-07 18:15:00,86.7,73.1,29.62,NE,46,5.0,6.0,64,0.00,,,0.01,443,Wunderground v.1.15,2013-07-07 23:15:00,
2013-07-07 18:20:00,86.5,74.2,29.62,NE,46,3.0,6.0,67,0.00,,,0.01,431,Wunderground v.1.15,2013-07-07 23:20:00,
2013-07-07 18:25:00,86.5,73.3,29.62,NE,46,5.0,6.0,65,0.00,,,0.01,417,Wunderground v.1.15,2013-07-07 23:25:00,
2013-07-07 18:30:00,86.5,73.3,29.62,NE,47,3.0,4.0,65,0.00,,,0.01,401,Wunderground v.1.15,2013-07-07 23:30:00,
2013-07-07 18:35:00,86.5,73.8,29.63,NE,49,5.0,6.0,66,0.00,,,0.01,381,Wunderground v.1.15,2013-07-07 23:35:00,
2013-07-07 18:40:00,86.4,74.1,29.63,NE,46,4.0,5.0,67,0.00,,,0.01,371,Wunderground v.1.15,2013-07-07 23:40:00,
2013-07-07 18:45:00,86.1,73.4,29.62,NE,53,1.0,7.0,66,0.00,,,0.01,355,Wunderground v.1.15,2013-07-07 23:45:00,
2013-07-07 18:51:00,86.0,73.8,29.62,NE,52,4.0,6.0,67,0.00,,,0.01,334,Wunderground v.1.15,2013-07-07 23:51:00,
2013-07-07 18:56:00,85.9,73.7,29.63,NE,51,4.0,6.0,67,0.00,,,0.01,325,Wunderground v.1.15,2013-07-07 23:56:00,
2013-07-07 19:01:00,86.0,73.3,29.63,NE,49,4.0,6.0,66,0.00,,,0.01,287,Wunderground v.1.15,2013-07-08 00:01:00,
2013-07-07 19:06:00,86.1,73.9,29.64,NE,48,6.0,6.0,67,0.00,,,0.01,186,Wunderground v.1.15,2013-07-08 00:06:00,
2013-07-07 19:11:00,85.7,73.5,29.64,NE,48,1.0,4.0,67,0.00,,,0.01,223,Wunderground v.1.15,2013-07-08 00:11:00,
2013-07-07 19:16:00,85.2,73.4,29.63,NE,48,2.0,4.0,68,0.00,,,0.01,297,Wunderground v.1.15,2013-07-08 00:16:00,
2013-07-07 19:21:00,85.1,73.8,29.63,NE,49,2.0,4.0,69,0.00,,,0.01,248,Wunderground v.1.15,2013-07-08 00:21:00,
2013-07-07 19:26:00,85.1,73.3,29.64,NE,49,3.0,6.0,68,0.00,,,0.01,241,Wunderground v.1.15,2013-07-08 00:26:00,
2013-07-07 19:31:00,85.2,73.4,29.64,NE,49,2.0,4.0,68,0.00,,,0.01,213,Wunderground v.1.15,2013-07-08 00:31:00,
2013-07-07 19:36:00,85.1,73.8,29.65,NE,49,1.0,4.0,69,0.00,,,0.01,200,Wunderground v.1.15,2013-07-08 00:36:00,
2013-07-07 19:41:00,85.3,74.4,29.65,NE,48,2.0,4.0,70,0.00,,,0.01,193,Wunderground v.1.15,2013-07-08 00:41:00,
2013-07-07 19:46:00,85.5,74.2,29.65,NE,48,5.0,6.0,69,0.00,,,0.01,123,Wunderground v.1.15,2013-07-08 00:46:00,
2013-07-07 19:51:00,85.3,74.4,29.66,NE,48,4.0,4.0,70,0.00,,,0.01,120,Wunderground v.1.15,2013-07-08 00:51:00,
2013-07-07 19:56:00,84.8,73.1,29.67,NE,48,2.0,4.0,68,0.00,,,0.01,67,Wunderground v.1.15,2013-07-08 00:56:00,
2013-07-07 20:01:00,84.4,73.1,29.66,NE,48,6.0,7.0,69,0.00,,,0.01,44,Wunderground v.1.15,2013-07-08 01:01:00,
2013-07-07 20:06:00,83.9,72.6,29.68,NE,45,4.0,7.0,69,0.00,,,0.01,28,Wunderground v.1.15,2013-07-08 01:06:00,
2013-07-07 20:11:00,83.5,72.3,29.69,NNE,30,3.0,6.0,69,0.00,,,0.01,16,Wunderground v.1.15,2013-07-08 01:11:00,
2013-07-07 20:16:00,83.3,72.5,29.69,NNE,26,4.0,7.0,70,0.00,,,0.01,12,Wunderground v.1.15,2013-07-08 01:16:00,
2013-07-07 20:21:00,83.0,72.2,29.69,NNE,12,6.0,8.0,70,0.00,,,0.01,18,Wunderground v.1.15,2013-07-08 01:21:00,
2013-07-07 20:26:00,82.1,70.1,29.70,NNW,327,21.0,28.0,67,0.00,,,0.01,9,Wunderground v.1.15,2013-07-08 01:26:00,
2013-07-07 20:31:00,76.5,65.6,29.70,NNW,330,16.0,24.0,69,0.00,,,0.01,7,Wunderground v.1.15,2013-07-08 01:31:00,
2013-07-07 20:36:00,74.4,65.2,29.70,NNE,16,10.0,28.0,73,0.00,,,0.01,12,Wunderground v.1.15,2013-07-08 01:36:00,
2013-07-07 20:41:00,73.6,65.6,29.69,NNE,12,11.0,24.0,76,0.00,,,0.01,12,Wunderground v.1.15,2013-07-08 01:41:00,
2013-07-07 20:46:00,73.4,65.7,29.69,NE,52,20.0,28.0,77,0.00,,,0.01,12,Wunderground v.1.15,2013-07-08 01:46:00,
2013-07-07 20:51:00,73.5,66.2,29.69,NNE,24,9.0,13.0,78,0.00,,,0.01,12,Wunderground v.1.15,2013-07-08 01:51:00,
2013-07-07 20:56:00,73.5,66.2,29.68,NW,325,11.0,18.0,78,0.00,,,0.01,14,Wunderground v.1.15,2013-07-08 01:56:00,
2013-07-07 21:01:00,73.3,66.4,29.70,NW,321,9.0,16.0,79,0.00,,,0.01,14,Wunderground v.1.15,2013-07-08 02:01:00,
2013-07-07 21:06:00,73.1,66.6,29.71,NNE,32,12.0,18.0,80,0.00,,,0.01,12,Wunderground v.1.15,2013-07-08 02:06:00,
2013-07-07 21:11:00,73.0,66.8,29.70,NNE,32,9.0,11.0,81,0.00,,,0.01,7,Wunderground v.1.15,2013-07-08 02:11:00,
2013-07-07 21:16:00,72.9,66.7,29.69,NE,53,6.0,14.0,81,0.00,,,0.01,0,Wunderground v.1.15,2013-07-08 02:16:00,
2013-07-07 21:21:00,72.8,67.0,29.70,NNE,25,8.0,14.0,82,0.00,,,0.01,0,Wunderground v.1.15,2013-07-08 02:21:00,
2013-07-07 21:26:00,72.7,66.9,29.69,ENE,77,9.0,14.0,82,0.00,,,0.01,0,Wunderground v.1.15,2013-07-08 02:26:00,
2013-07-07 21:31:00,72.4,66.6,29.68,NE,38,8.0,8.0,82,0.00,,,0.01,0,Wunderground v.1.15,2013-07-08 02:31:00,
2013-07-07 21:36:00,72.3,66.5,29.69,NE,46,7.0,12.0,82,0.00,,,0.01,0,Wunderground v.1.15,2013-07-08 02:36:00,